Find NOAA 12

NORAD ID: 21263 Int'l Des: 1991-032 Owner: NOAA Country: US operational
LEOCIRCULARRETROGRADESSO

現在のビュー

3D地球を読み込み中...

NOAA 12について

説明を読み込み中...

次回通過

Passes for default location (London). Set your location on the main map for personalized predictions.

高度履歴

Loading altitude history...

軌道要素

1 21263U 91032A 26146.59809866 .00000056 00000-0 40912-4 0 9990
2 21263 98.6195 135.4223 0014858 91.5053 268.7830 14.26737991821883
Epoch: May 26, 2026 • Age: 5 hours

現在のステータス

高度 822.1 km
速度 7.44 km/s
衛星直下点 -34.92°S, 31.29°W
打ち上げ日 May 14, 1991
運用期間 35 years
タイプ weather

技術仕様

分類 Payload
質量 685.00 kg
乾燥質量 685.00 kg
総質量 1418.00 kg
長さ 3.70 m
直径 1.90 m
スパン 4.90 m
形状 Box + Pan
製造者 GEEW
バスタイプ Tiros N
フェーズステータス In Orbit
所有者/国 NOAA/US

Most Searched